| time (UTC) | temp F | wind direction | speed knots | gust knots | rain 1hr in | rain 24hr in | rain mn in | humidity % | barometer mb |
| 20260508004555 | 30 | 270 | 7.8 | 20.0 | 0.00 | 0.30 | 0.06 | 81 | 1003.7 |
| 20260508003055 | 30 | 261 | 7.0 | 17.4 | 0.00 | 0.30 | 0.06 | 81 | 1003.6 |
| 20260508001557 | 31 | 41 | 4.3 | 16.5 | 0.00 | 0.30 | 0.06 | 80 | 1003.8 |
| 20260508000054 | 32 | 266 | 8.7 | 17.4 | 0.00 | 0.30 | 0.06 | 78 | 1003.6 |
| 20260507234603 | 32 | 275 | 9.6 | 19.1 | 0.00 | 0.43 | 0.06 | 76 | 1003.4 |
| 20260507233054 | 33 | 305 | 8.7 | 20.9 | 0.00 | 0.43 | 0.06 | 75 | 1003.1 |
| 20260507231558 | 34 | 272 | 7.8 | 20.0 | 0.00 | 0.43 | 0.06 | 73 | 1003.2 |
| 20260507230100 | 34 | 245 | 10.4 | 20.0 | 0.00 | 0.43 | 0.06 | 73 | 1003.1 |
| 20260507224558 | 34 | 186 | 9.6 | 22.6 | 0.00 | 0.46 | 0.06 | 72 | 1002.9 |
| 20260507223059 | 35 | 299 | 10.4 | 26.1 | 0.00 | 0.46 | 0.06 | 72 | 1002.9 |
| 20260507221555 | 35 | 303 | 7.8 | 17.4 | 0.00 | 0.46 | 0.06 | 73 | 1003.0 |
| 20260507220059 | 35 | 251 | 12.2 | 25.2 | 0.00 | 0.46 | 0.06 | 72 | 1003.0 |
| 20260507214601 | 36 | 260 | 9.6 | 26.1 | 0.00 | 0.49 | 0.06 | 73 | 1003.0 |
| 20260507213056 | 36 | 277 | 10.4 | 20.0 | 0.00 | 0.49 | 0.06 | 73 | 1002.8 |
| 20260507211554 | 36 | 192 | 8.7 | 20.0 | 0.00 | 0.49 | 0.06 | 77 | 1002.9 |
| 20260507210053 | 37 | 271 | 7.8 | 19.1 | 0.00 | 0.49 | 0.06 | 76 | 1002.9 |
| 20260507204557 | 37 | 256 | 8.7 | 23.5 | 0.00 | 0.52 | 0.06 | 77 | 1002.7 |
| 20260507203103 | 36 | 235 | 8.7 | 18.2 | 0.00 | 0.52 | 0.06 | 79 | 1002.8 |
| 20260507201601 | 36 | 240 | 8.7 | 23.5 | 0.00 | 0.52 | 0.06 | 83 | 1002.7 |
| 20260507200058 | 37 | 271 | 10.4 | 20.0 | 0.00 | 0.52 | 0.06 | 81 | 1002.5 |
| 20260507194556 | 38 | 340 | 9.6 | 19.1 | 0.00 | 0.58 | 0.06 | 85 | 1002.4 |
| 20260507193101 | 38 | 254 | 8.7 | 23.5 | 0.00 | 0.58 | 0.06 | 90 | 1002.4 |
| 20260507191557 | 37 | 276 | 7.8 | 20.9 | 0.00 | 0.58 | 0.06 | 98 | 1002.4 |
| 20260507190054 | 37 | 255 | 9.6 | 19.1 | 0.00 | 0.58 | 0.06 | 100 | 1002.5 |
| 20260507184555 | 36 | 286 | 8.7 | 19.1 | 0.00 | 0.69 | 0.06 | 100 | 1002.3 |
| 20260507183106 | 38 | 254 | 9.6 | 17.4 | 0.00 | 0.69 | 0.06 | 100 | 1002.4 |
| 20260507181558 | 37 | 241 | 4.3 | 13.0 | 0.01 | 0.69 | 0.06 | 100 | 1002.5 |
| 20260507180056 | 37 | 210 | 8.7 | 13.9 | 0.02 | 0.69 | 0.06 | 100 | 1002.8 |
| 20260507174606 | 37 | 230 | 7.8 | 17.4 | 0.04 | 0.78 | 0.06 | 100 | 1002.8 |
| 20260507173101 | 37 | 279 | 6.1 | 13.0 | 0.04 | 0.78 | 0.06 | 100 | 1002.8 |
| 20260507171611 | 36 | 282 | 7.8 | 20.0 | 0.04 | 0.77 | 0.05 | 100 | 1002.9 |
| 20260507170058 | 36 | 252 | 7.8 | 13.9 | 0.04 | 0.76 | 0.04 | 100 | 1003.1 |
| 20260507164610 | 33 | 269 | 2.6 | 13.9 | 0.02 | 0.76 | 0.02 | 100 | 1003.4 |
| 20260507163059 | 34 | 210 | 5.2 | 13.0 | 0.02 | 0.76 | 0.02 | 100 | 1003.4 |
| 20260507161613 | 35 | 269 | 4.3 | 13.0 | 0.01 | 0.75 | 0.01 | 100 | 1003.4 |
| 20260507160058 | 35 | 242 | 5.2 | 10.4 | 0.00 | 0.74 | 0.00 | 100 | 1003.5 |
| 20260507154558 | 36 | 225 | 6.1 | 11.3 | 0.00 | 0.74 | 0.00 | 100 | 1003.6 |
| 20260507153058 | 36 | 275 | 3.5 | 10.4 | 0.00 | 0.74 | 0.00 | 100 | 1003.7 |
| 20260507151603 | 36 | 306 | 6.1 | 14.8 | 0.00 | 0.74 | 0.00 | 100 | 1003.6 |
| 20260507150106 | 35 | 234 | 5.2 | 12.2 | 0.00 | 0.74 | 0.00 | 100 | 1003.8 |
| 20260507144559 | 35 | 320 | 3.5 | 9.6 | 0.00 | 0.76 | 0.00 | 100 | 1003.7 |
| 20260507143105 | 34 | 266 | 3.5 | 9.6 | 0.00 | 0.76 | 0.00 | 100 | 1003.8 |
| 20260507141558 | 34 | 275 | 4.3 | 9.6 | 0.00 | 0.76 | 0.00 | 100 | 1003.9 |
| 20260507140100 | 34 | 275 | 3.5 | 11.3 | 0.00 | 0.76 | 0.00 | 100 | 1003.8 |
| 20260507134559 | 34 | 246 | 3.5 | 13.9 | 0.00 | 0.76 | 0.00 | 100 | 1003.8 |
| 20260507133101 | 34 | 169 | 8.7 | 17.4 | 0.00 | 0.76 | 0.00 | 100 | 1003.8 |
| 20260507131622 | 33 | 260 | 6.1 | 13.0 | 0.00 | 0.76 | 0.00 | 100 | 1003.9 |
| 20260507130104 | 33 | 295 | 4.3 | 13.0 | 0.00 | 0.76 | 0.00 | 100 | 1003.7 |
| 20260507124558 | 33 | 259 | 4.3 | 12.2 | 0.00 | 0.76 | 0.00 | 100 | 1003.7 |
| 20260507123107 | 32 | 268 | 3.5 | 8.7 | 0.00 | 0.76 | 0.00 | 100 | 1003.5 |
| 20260507121607 | 32 | 100 | 2.6 | 7.0 | 0.00 | 0.76 | 0.00 | 100 | 1003.4 |
| 20260507120104 | 32 | 348 | 3.5 | 12.2 | 0.00 | 0.76 | 0.00 | 100 | 1003.5 |
| 20260507114602 | 32 | 308 | 6.1 | 13.0 | 0.00 | 0.76 | 0.00 | 100 | 1003.5 |
| 20260507113103 | 31 | 276 | 3.5 | 13.0 | 0.00 | 0.76 | 0.00 | 100 | 1003.6 |
| 20260507111554 | 31 | 267 | 7.0 | 12.2 | 0.00 | 0.76 | 0.00 | 100 | 1003.7 |
| 20260507110110 | 31 | 140 | 2.6 | 11.3 | 0.00 | 0.76 | 0.00 | 100 | 1003.6 |
| 20260507104556 | 31 | 265 | 6.1 | 14.8 | 0.00 | 0.76 | 0.00 | 100 | 1003.7 |
| 20260507103058 | 31 | 313 | 7.0 | 15.6 | 0.00 | 0.76 | 0.00 | 100 | 1003.3 |
| 20260507101558 | 31 | 269 | 5.2 | 11.3 | 0.00 | 0.76 | 0.00 | 99 | 1003.1 |
| 20260507100054 | 31 | 91 | 4.3 | 13.9 | 0.00 | 0.76 | 0.00 | 100 | 1002.9 |
| 20260507094608 | 31 | 311 | 6.1 | 13.9 | 0.00 | 0.76 | 0.00 | 99 | 1003.1 |
| 20260507093100 | 31 | 93 | 4.3 | 12.2 | 0.00 | 0.76 | 0.00 | 99 | 1002.8 |
| 20260507091640 | 31 | 137 | 3.5 | 12.2 | 0.00 | 0.76 | 0.00 | 99 | 1002.9 |
| 20260507090105 | 31 | 134 | 4.3 | 11.3 | 0.00 | 0.76 | 0.00 | 99 | 1002.9 |
| 20260507084559 | 31 | 87 | 5.2 | 14.8 | 0.00 | 0.76 | 0.00 | 99 | 1002.7 |
| 20260507083057 | 31 | 149 | 5.2 | 13.0 | 0.00 | 0.76 | 0.00 | 99 | 1003.1 |
| 20260507081555 | 31 | 319 | 5.2 | 16.5 | 0.00 | 0.76 | 0.00 | 100 | 1003.1 |
| 20260507080059 | 31 | 5 | 3.5 | 12.2 | 0.00 | 0.76 | 0.00 | 100 | 1002.8 |
| 20260507074555 | 31 | 130 | 4.3 | 9.6 | 0.00 | 0.79 | 0.00 | 100 | 1002.7 |
| 20260507073053 | 31 | 128 | 5.2 | 10.4 | 0.00 | 0.79 | 0.00 | 100 | 1002.4 |
| 20260507071557 | 31 | 122 | 3.5 | 9.6 | 0.00 | 0.79 | 0.00 | 99 | 1002.8 |
| 20260507070107 | 32 | 98 | 5.2 | 10.4 | 0.00 | 0.79 | 0.00 | 100 | 1002.2 |
| 20260507064600 | 32 | 65 | 4.3 | 12.2 | 0.00 | 0.80 | 0.00 | 100 | 1002.5 |
| 20260507063058 | 33 | 84 | 5.2 | 10.4 | 0.00 | 0.80 | 0.00 | 100 | 1001.8 |
| 20260507061559 | 33 | 109 | 5.2 | 13.0 | 0.00 | 0.80 | 0.00 | 100 | 1002.4 |
| 20260507060105 | 33 | 317 | 5.2 | 13.9 | 0.00 | 0.80 | 0.00 | 100 | 1002.7 |
| 20260507054559 | 33 | 142 | 6.1 | 12.2 | 0.00 | 0.83 | 0.00 | 100 | 1002.5 |
| 20260507053055 | 33 | 164 | 5.2 | 13.9 | 0.00 | 0.83 | 0.00 | 100 | 1002.6 |
| 20260507051557 | 34 | 17 | 4.3 | 8.7 | 0.00 | 0.83 | 0.00 | 100 | 1002.8 |
| 20260507050057 | 34 | 321 | 3.5 | 9.6 | 0.00 | 0.83 | 0.00 | 100 | 1002.7 |
| 20260507044601 | 35 | 252 | 4.3 | 9.6 | 0.00 | 0.83 | 0.00 | 100 | 1002.8 |
| 20260507043059 | 35 | 132 | 2.6 | 6.1 | 0.02 | 0.83 | 0.00 | 100 | 1003.1 |
| 20260507041555 | 35 | 79 | 3.5 | 10.4 | 0.04 | 0.83 | 0.00 | 100 | 1003.5 |
| 20260507040103 | 35 | 112 | 7.0 | 15.6 | 0.04 | 0.83 | 0.00 | 100 | 1003.9 |
| 20260507034559 | 36 | 67 | 5.2 | 13.0 | 0.07 | 0.83 | 0.83 | 100 | 1003.8 |
| 20260507033055 | 36 | 114 | 5.2 | 15.6 | 0.07 | 0.81 | 0.81 | 100 | 1004.2 |
| 20260507031553 | 36 | 82 | 5.2 | 13.0 | 0.07 | 0.79 | 0.79 | 99 | 1004.2 |
| 20260507030055 | 37 | 228 | 4.3 | 12.2 | 0.11 | 0.79 | 0.79 | 99 | 1004.1 |
| 20260507024600 | 37 | 288 | 7.8 | 15.6 | 0.12 | 0.76 | 0.76 | 100 | 1004.2 |
| 20260507023055 | 38 | 296 | 3.5 | 7.8 | 0.12 | 0.74 | 0.74 | 99 | 1003.9 |
| 20260507021558 | 39 | 125 | 0.9 | 4.3 | 0.10 | 0.72 | 0.72 | 100 | 1004.1 |
| 20260507020056 | 41 | 263 | 3.5 | 7.8 | 0.06 | 0.68 | 0.68 | 100 | 1004.2 |
| 20260507014556 | 41 | 275 | 0.9 | 5.2 | 0.02 | 0.64 | 0.64 | 100 | 1003.9 |
| 20260507013056 | 42 | 256 | 0.9 | 6.1 | 0.01 | 0.62 | 0.62 | 100 | 1004.0 |
| 20260507011556 | 43 | 281 | 4.3 | 8.7 | 0.02 | 0.62 | 0.62 | 100 | 1004.2 |
| 20260507010111 | 43 | 353 | 0.0 | 10.4 | 0.03 | 0.62 | 0.62 | 100 | 1004.2 |